Location: Ripley
(48.3812°N, 115.4473°W)
Time: 20:03:13
(UTC+00:00)

RS-15 - Pass Details

Date: 03 July 2022
Orbit: 1881 x 2163 km, 64.8° (Epoch: 19 August)

Event Time Altitude Azimuth Distance (km) Brightness Sun altitude
Rises 04:49:14 0° 310° (NW) 5,683 12.6 -8.4°
Reaches altitude 10° 04:52:57 10° 316° (NW) 4,688 11.7 -8.8°
Maximum altitude 05:04:56 50° 31° (NNE) 2,597 8.8 -10.1°
Drops below altitude 10° 05:16:39 10° 105° (ESE) 4,596 9.5 -11.2°
Enters shadow 05:19:28 - 110° (ESE) 5,361 9.8 -11.5°
